Meteo pe oră la Dzikow

Astăzi, 5 Martie, Vineri

Timp Temperatura Precipitaţii Vânt Presiune Umiditate
00:00 -3°C° 0 mm 2 m/s 750 mmHg 88%
01:00 -3°C° 0 mm 2 m/s 750 mmHg 90%
02:00 -3°C° 0 mm 2 m/s 750 mmHg 89%
03:00 -3°C° 0 mm 2 m/s 750 mmHg 88%
04:00 -3°C° 0 mm 2 m/s 750 mmHg 87%
05:00 -3°C° 0 mm 2 m/s 751 mmHg 86%
06:00 -3°C° 0 mm 2 m/s 751 mmHg 84%
07:00 -3°C° 0 mm 2 m/s 752 mmHg 82%
08:00 -1°C° 0 mm 2 m/s 752 mmHg 72%
09:00 0°C° 0 mm 3 m/s 752 mmHg 63%
10:00 0°C° 0 mm 4 m/s 753 mmHg 53%
11:00 +1°C° 0.1 mm 4 m/s 753 mmHg 49%
12:00 +1°C° 0.1 mm 4 m/s 753 mmHg 45%
13:00 +1°C° 0.1 mm 4 m/s 754 mmHg 41%
14:00 +1°C° 0.1 mm 4 m/s 754 mmHg 46%
15:00 +1°C° 0.1 mm 5 m/s 754 mmHg 50%
16:00 0°C° 0.1 mm 5 m/s 754 mmHg 54%
17:00 -1°C° 0 mm 4 m/s 755 mmHg 61%
18:00 -1°C° 0 mm 3 m/s 755 mmHg 69%
19:00 -2°C° 0 mm 2 m/s 755 mmHg 77%
20:00 -3°C° 0 mm 2 m/s 756 mmHg 77%
21:00 -3°C° 0 mm 2 m/s 756 mmHg 77%
22:00 -3°C° 0 mm 2 m/s 757 mmHg 78%
23:00 -3°C° 0 mm 2 m/s 757 mmHg 77%

Mâine, 6 Martie, Sâmbătă

Timp Temperatura Precipitaţii Vânt Presiune Umiditate
00:00 -3°C° 0 mm 2 m/s 758 mmHg 76%
01:00 -3°C° 0 mm 2 m/s 758 mmHg 76%
02:00 -3°C° 0 mm 2 m/s 758 mmHg 75%
03:00 -3°C° 0 mm 2 m/s 758 mmHg 74%
04:00 -3°C° 0 mm 2 m/s 758 mmHg 74%
05:00 -3°C° 0 mm 2 m/s 758 mmHg 75%
06:00 -3°C° 0 mm 2 m/s 758 mmHg 76%
07:00 -3°C° 0 mm 2 m/s 758 mmHg 78%
08:00 -1°C° 0 mm 3 m/s 758 mmHg 70%
09:00 0°C° 0 mm 3 m/s 758 mmHg 62%
10:00 +1°C° 0 mm 3 m/s 758 mmHg 55%
11:00 +1°C° 0 mm 4 m/s 758 mmHg 51%
12:00 +2°C° 0 mm 5 m/s 757 mmHg 47%
13:00 +2°C° 0 mm 5 m/s 757 mmHg 42%
14:00 +2°C° 0 mm 5 m/s 756 mmHg 50%
15:00 +2°C° 0 mm 5 m/s 756 mmHg 57%
16:00 +1°C° 0 mm 5 m/s 755 mmHg 65%
17:00 +1°C° 0 mm 6 m/s 755 mmHg 74%
18:00 -1°C° 0 mm 6 m/s 755 mmHg 84%
19:00 -2°C° 0 mm 6 m/s 754 mmHg 93%
20:00 -2°C° 0 mm 6 m/s 754 mmHg 88%
21:00 -2°C° 0 mm 6 m/s 754 mmHg 84%
22:00 -2°C° 0 mm 6 m/s 754 mmHg 79%
23:00 -2°C° 0 mm 6 m/s 753 mmHg 80%

Poimâine, 7 Martie, Duminică

Timp Temperatura Precipitaţii Vânt Presiune Umiditate
00:00 -2°C° 0 mm 6 m/s 753 mmHg 82%
01:00 -2°C° 0 mm 7 m/s 753 mmHg 83%
02:00 -2°C° 0 mm 7 m/s 752 mmHg 86%
03:00 -3°C° 0 mm 7 m/s 752 mmHg 88%
04:00 -3°C° 0 mm 7 m/s 752 mmHg 91%
05:00 -3°C° 0.2 mm 7 m/s 751 mmHg 92%
06:00 -3°C° 0.2 mm 7 m/s 751 mmHg 93%
07:00 -3°C° 0.2 mm 7 m/s 751 mmHg 94%
08:00 -3°C° 0.1 mm 7 m/s 751 mmHg 93%
09:00 -2°C° 0.1 mm 7 m/s 750 mmHg 92%
10:00 -2°C° 0.1 mm 7 m/s 750 mmHg 91%
11:00 -2°C° 0 mm 7 m/s 750 mmHg 90%
12:00 -2°C° 0 mm 7 m/s 750 mmHg 89%
13:00 -2°C° 0 mm 6 m/s 750 mmHg 88%
14:00 -2°C° 0.1 mm 6 m/s 749 mmHg 90%
15:00 -2°C° 0.1 mm 6 m/s 749 mmHg 93%
16:00 -2°C° 0.1 mm 6 m/s 748 mmHg 95%
17:00 -2°C° 0.5 mm 6 m/s 748 mmHg 95%
18:00 -2°C° 0.5 mm 6 m/s 748 mmHg 96%
19:00 -1°C° 0.5 mm 5 m/s 748 mmHg 96%
20:00 -1°C° 1 mm 5 m/s 748 mmHg 96%
21:00 -2°C° 1 mm 4 m/s 748 mmHg 96%
22:00 -1°C° 1 mm 3 m/s 748 mmHg 96%
23:00 -2°C° 0.1 mm 2 m/s 748 mmHg 95%

8 Martie, Luni

Timp Temperatura Precipitaţii Vânt Presiune Umiditate
00:00 -3°C° 0.1 mm 2 m/s 748 mmHg 94%
01:00 -2°C° 0.1 mm 1 m/s 748 mmHg 93%
02:00 -2°C° 0 mm 1 m/s 748 mmHg 91%
03:00 -4°C° 0 mm 2 m/s 748 mmHg 88%
04:00 -4°C° 0 mm 2 m/s 748 mmHg 86%
05:00 -4°C° 0 mm 2 m/s 749 mmHg 84%
06:00 -4°C° 0 mm 2 m/s 749 mmHg 82%
07:00 -4°C° 0 mm 2 m/s 750 mmHg 81%
08:00 -4°C° 0 mm 3 m/s 750 mmHg 75%
09:00 -2°C° 0 mm 4 m/s 751 mmHg 69%
10:00 -1°C° 0 mm 4 m/s 751 mmHg 63%
11:00 -1°C° 0 mm 4 m/s 752 mmHg 62%
12:00 -1°C° 0 mm 4 m/s 752 mmHg 62%
13:00 0°C° 0 mm 4 m/s 753 mmHg 62%
14:00 -1°C° 0 mm 4 m/s 753 mmHg 63%
15:00 -1°C° 0 mm 4 m/s 753 mmHg 65%
16:00 -1°C° 0 mm 4 m/s 753 mmHg 67%
17:00 -2°C° 0 mm 3 m/s 753 mmHg 73%
18:00 -3°C° 0 mm 2 m/s 754 mmHg 78%
19:00 -4°C° 0 mm 2 m/s 754 mmHg 84%
20:00 -4°C° 0 mm 2 m/s 754 mmHg 84%
21:00 -2°C° 0 mm 1 m/s 754 mmHg 85%
22:00 -3°C° 0 mm 1 m/s 755 mmHg 85%
23:00 -3°C° 0 mm 1 m/s 755 mmHg 84%

9 Martie, Marţi

Timp Temperatura Precipitaţii Vânt Presiune Umiditate
00:00 -2°C° 0 mm 1 m/s 755 mmHg 83%
01:00 -3°C° 0 mm 0 m/s 755 mmHg 82%
02:00 -3°C° 0 mm 0 m/s 755 mmHg 81%
03:00 -3°C° 0 mm 0 m/s 754 mmHg 81%
04:00 -4°C° 0 mm 0 m/s 754 mmHg 80%
05:00 -3°C° 0 mm 0 m/s 754 mmHg 79%
06:00 -2°C° 0 mm 1 m/s 754 mmHg 78%
07:00 -2°C° 0 mm 1 m/s 755 mmHg 76%
08:00 -1°C° 0 mm 1 m/s 755 mmHg 72%
09:00 -1°C° 0 mm 1 m/s 755 mmHg 67%
10:00 -2°C° 0 mm 2 m/s 755 mmHg 63%
11:00 -2°C° 0 mm 2 m/s 755 mmHg 60%
12:00 -1°C° 0 mm 2 m/s 755 mmHg 58%
13:00 +1°C° 0 mm 2 m/s 755 mmHg 55%
14:00 +1°C° 0 mm 2 m/s 754 mmHg 54%
15:00 +1°C° 0 mm 2 m/s 754 mmHg 53%
16:00 +1°C° 0 mm 2 m/s 754 mmHg 52%
17:00 -1°C° 0 mm 2 m/s 754 mmHg 57%
18:00 -2°C° 0 mm 2 m/s 754 mmHg 62%
19:00 -3°C° 0 mm 2 m/s 754 mmHg 67%
20:00 -3°C° 0 mm 2 m/s 754 mmHg 68%
21:00 -4°C° 0 mm 2 m/s 753 mmHg 68%
22:00 -4°C° 0 mm 2 m/s 753 mmHg 69%
23:00 -3°C° 0 mm 2 m/s 753 mmHg 68%

10 Martie, Miercuri

Timp Temperatura Precipitaţii Vânt Presiune Umiditate
00:00 -4°C° 0 mm 3 m/s 753 mmHg 68%
01:00 -4°C° 0 mm 3 m/s 753 mmHg 68%
02:00 -4°C° 0 mm 3 m/s 753 mmHg 69%
03:00 -4°C° 0 mm 3 m/s 752 mmHg 69%
04:00 -4°C° 0 mm 3 m/s 752 mmHg 70%
05:00 -4°C° 0 mm 3 m/s 752 mmHg 70%
06:00 -4°C° 0 mm 3 m/s 752 mmHg 70%
07:00 -4°C° 0 mm 3 m/s 751 mmHg 71%
08:00 -2°C° 0 mm 3 m/s 751 mmHg 69%
09:00 -1°C° 0 mm 3 m/s 751 mmHg 66%
10:00 0°C° 0 mm 4 m/s 751 mmHg 64%
11:00 0°C° 0 mm 4 m/s 751 mmHg 67%
12:00 +1°C° 0 mm 4 m/s 750 mmHg 69%
13:00 +1°C° 0 mm 4 m/s 750 mmHg 71%
14:00 +1°C° 0 mm 4 m/s 749 mmHg 75%
15:00 +1°C° 0 mm 4 m/s 749 mmHg 78%
16:00 +1°C° 0 mm 4 m/s 748 mmHg 82%
17:00 +1°C° 0 mm 4 m/s 747 mmHg 85%
18:00 0°C° 0 mm 4 m/s 747 mmHg 89%
19:00 0°C° 0 mm 4 m/s 746 mmHg 92%
20:00 0°C° 0 mm 4 m/s 746 mmHg 90%
21:00 0°C° 0 mm 5 m/s 745 mmHg 89%
22:00 0°C° 0 mm 5 m/s 745 mmHg 87%
23:00 0°C° 0 mm 5 m/s 744 mmHg 86%
Arată mai mult

Formular de consimțământ

Meteoprog și furnizorii noștri de servicii pot stoca și accesa date personale, precum cookies, identificatori de dispozitiv sau alte tehnologii similare pe dispozitivul dumneavoastră și procesa astfel de date pentru a personaliza conținutul și reclamele, dar și pentru a oferi caracteristici de social media și pentru a analiza traficul.

  • Stocarea și/sau accesarea informațiilor pe dispozitivul dumneavoastră

    Cookies, identificatori de dispozitiv sau alte informații pot fi stocate sau accesate pe dispozitiv în scopurile indicate mai sus.

  • Reclame și conținut personalizat, evaluarea reclamelor și a conținutului, informații despre audiențe și dezvoltarea produselor

    Reclamele și conținutul pot fi personalizate pe baza unui profil. Pot fi adăugate date suplimentare pentru a personaliza mai bine reclamele și conținutul. Performanța reclamelor și conținutului poate fi măsurată. Pot fi obținute informații despre utilizatorii care au văzut reclamele și conținutul. Aceste date pot fi utilizate pentru a dezvolta sau îmbunătăți experiența utilizatorilor, sistemele și software-ul.

Dând clic pe ‘Sunt de acord’, permiteți utilizarea cookie-urilor menționate, a identificatorilor de dispozitiv, balizelor web sau altor tehnologii similare. Setările pot fi modificate din browser-ul dispozitivului dumneavoastră.

În anumite scopuri, interesele legitime pot prima asupra consimțământului. Puteți citi mai multe informații în acest sens în Politica privind Confidențialitatea Datelor și Cookie.